Location: Unspecified
(0.0000°N, 0.0000°E)
Time: 03:16:27
(UTC+00:00)

Hubble Space Telescope - Pass Details

Date: 16 November 2019
Orbit: 536 x 540 km, 28.5° (Epoch: 10 November)

Event Time Altitude Azimuth Distance (km) Brightness Sun altitude
Exits shadow 03:20:35 15° 90° (E) 1,484 3.6 -33.9°
Drops below altitude 10° 03:21:27 10° 96° (E) 1,783 4.2 -33.7°
Sets 03:23:51 0° 105° (ESE) 2,674 5.4 -33.1°
